Location: Mesa Vista Observatory
(35.5777°N, 105.6987°W)
Time: 06:43:13
(UTC-06:00)

Courier 1B - All Passes

Search period start: 26 September 2020 00:00
Search period end: 06 October 2020 00:00
Orbit: 962 x 1209 km, 28.3° (Epoch: 26 September)

Date Brightness Start Highest point End Pass type
(mag) Time Alt. Az. Time Alt. Az. Time Alt. Az.
26 Sep - 00:40:00 10° SW 00:46:53 37° SSE 00:53:26 10° E night (unlit)
26 Sep - 02:33:34 10° WSW 02:40:40 48° S 02:47:21 10° ESE visible
26 Sep - 04:27:51 10° W 04:34:22 38° SSW 04:40:31 10° SE visible
26 Sep - 06:23:17 10° WSW 06:27:38 18° SSW 06:31:53 10° SSE visible
26 Sep - 21:56:05 10° S 21:59:36 14° SSE 22:03:06 10° ESE night (unlit)
26 Sep - 23:46:25 10° SW 23:53:06 32° SSE 23:59:33 10° ESE night (unlit)
27 Sep - 01:39:39 10° WSW 01:46:53 47° S 01:53:42 10° ESE night (unlit)
27 Sep - 03:33:49 10° WSW 03:40:39 43° S 03:47:07 10° ESE visible
27 Sep - 05:28:45 10° WSW 05:34:05 23° SSW 05:39:13 10° SSE visible
27 Sep - 22:53:01 10° SSW 22:59:20 27° SSE 23:05:30 10° ESE night (unlit)
28 Sep - 00:45:48 10° WSW 00:53:04 45° S 00:59:59 10° ESE night (unlit)
28 Sep - 02:39:48 10° WSW 02:46:55 47° S 02:53:37 10° ESE visible
28 Sep - 04:34:27 10° WSW 04:40:29 29° SSW 04:46:14 10° SE visible
28 Sep - 06:32:58 10° SW 06:33:36 10° SSW 06:34:14 10° SSW visible
28 Sep - 21:59:50 10° SSW 22:05:35 22° SSE 22:11:14 10° ESE visible
28 Sep - 23:52:02 10° SW 23:59:14 41° SSE 00:06:11 10° E night (unlit)
29 Sep - 01:45:48 10° WSW 01:53:07 49° S 02:00:02 10° ESE night (unlit)
29 Sep - 03:40:15 10° W 03:46:50 35° SSW 03:53:03 10° SE visible
29 Sep - 05:36:21 10° WSW 05:40:05 15° SSW 05:43:42 10° S visible
29 Sep - 21:07:03 10° S 21:11:51 17° SSE 21:16:37 10° ESE visible
29 Sep - 22:58:22 10° SW 23:05:25 37° SSE 23:12:17 10° E night (unlit)
30 Sep - 00:51:52 10° WSW 00:59:17 50° S 01:06:22 10° ESE night (unlit)
30 Sep - 02:46:09 10° W 02:53:06 41° SSW 02:59:42 10° SE visible
30 Sep - 04:41:29 10° WSW 04:46:31 20° SSW 04:51:22 10° SSE visible
30 Sep - 20:14:58 10° S 20:18:09 13° SSE 20:21:19 10° SE visible
30 Sep - 22:04:52 10° SW 22:11:35 32° SSE 22:18:15 10° E visible
30 Sep - 23:57:58 10° WSW 00:05:25 48° S 00:12:37 10° ESE night (unlit)
01 Oct - 01:52:05 10° W 01:59:20 45° S 02:06:13 10° ESE night (unlit)
01 Oct - 03:46:59 10° WSW 03:52:54 26° SSW 03:58:33 10° SSE visible
01 Oct - 21:11:34 10° SSW 21:17:49 26° SSE 21:24:04 10° ESE visible
01 Oct - 23:04:09 10° WSW 23:11:33 45° S 23:18:47 10° E visible
02 Oct - 00:58:04 10° WSW 01:05:30 49° S 01:12:37 10° ESE night (unlit)
02 Oct - 02:52:41 10° W 02:59:13 32° SSW 03:05:27 10° SE night (unlit)
02 Oct - 04:49:48 10° SW 04:52:27 12° SSW 04:55:02 10° S visible
02 Oct - 20:18:33 10° SSW 20:24:04 21° SSE 20:29:38 10° ESE visible
02 Oct - 22:10:28 10° SW 22:17:41 41° SSE 22:24:52 10° E visible
03 Oct - 00:04:06 10° WSW 00:11:37 50° S 00:18:55 10° ESE night (unlit)
03 Oct - 01:58:30 10° W 02:05:29 38° SSW 02:12:09 10° SE night (unlit)
03 Oct - 03:54:19 10° WSW 03:58:52 17° SSW 04:03:16 10° S visible
03 Oct - 19:25:59 10° S 19:30:22 16° SSE 19:34:48 10° ESE visible
03 Oct - 21:16:54 10° SW 21:23:51 36° SSE 21:30:50 10° E visible
03 Oct - 23:10:13 10° WSW 23:17:44 50° S 23:25:09 10° ESE visible
04 Oct - 01:04:24 10° W 01:11:41 43° SSW 01:18:41 10° SE night (unlit)
04 Oct - 02:59:35 10° WSW 03:05:13 23° SSW 03:10:40 10° SSE night (unlit)
04 Oct - 18:34:28 10° SSE 18:36:42 11° SSE 18:38:58 10° SE daylight
04 Oct - 20:23:31 10° SW 20:30:03 31° SSE 20:36:42 10° ESE visible
04 Oct - 22:16:24 10° WSW 22:23:51 48° S 22:31:16 10° ESE visible
05 Oct - 00:10:23 10° W 00:17:49 47° S 00:25:05 10° ESE night (unlit)
05 Oct - 02:05:08 10° WSW 02:11:32 28° SSW 02:17:42 10° SE night (unlit)
05 Oct - 19:30:23 10° SSW 19:36:18 25° SSE 19:42:22 10° ESE visible
05 Oct - 21:22:42 10° WSW 21:29:57 45° S 21:37:20 10° E visible
05 Oct - 23:16:26 10° WSW 23:23:57 50° S 23:31:22 10° ESE visible
